TimeCDT,TemperatureF,Dew PointF,Humidity,Sea Level PressureIn,VisibilityMPH,Wind Direction,Wind SpeedMPH,Gust SpeedMPH,PrecipitationIn,Events,Conditions,WindDirDegrees,DateUTC
12:13 AM,42.8,35.6,76,29.68,7.0,ESE,13.8,19.6,N/A,,Clear,120,2014-03-31 05:13:00
12:32 AM,42.8,35.6,76,29.68,7.0,ESE,12.7,-,N/A,,Clear,110,2014-03-31 05:32:00
12:53 AM,42.8,37.4,81,29.68,7.0,ESE,11.5,16.1,N/A,,Clear,110,2014-03-31 05:53:00
1:13 AM,42.8,37.4,81,29.67,7.0,ESE,10.4,-,N/A,,Clear,110,2014-03-31 06:13:00
1:32 AM,42.8,37.4,81,29.66,7.0,ESE,10.4,16.1,N/A,,Clear,110,2014-03-31 06:32:00
1:53 AM,42.8,37.4,81,29.65,7.0,ESE,11.5,-,N/A,,Clear,110,2014-03-31 06:53:00
2:13 AM,42.8,37.4,81,29.64,7.0,ESE,12.7,16.1,N/A,,Clear,120,2014-03-31 07:13:00
2:32 AM,42.8,37.4,81,29.63,7.0,ESE,10.4,-,N/A,,Clear,110,2014-03-31 07:32:00
2:53 AM,42.8,37.4,81,29.62,7.0,ESE,10.4,17.3,N/A,,Clear,110,2014-03-31 07:53:00
3:12 AM,42.8,37.4,81,29.61,7.0,ESE,12.7,-,N/A,,Clear,120,2014-03-31 08:12:00
3:32 AM,42.8,37.4,81,29.60,7.0,ESE,10.4,-,N/A,,Clear,120,2014-03-31 08:32:00
3:53 AM,41.0,37.4,87,29.60,7.0,SE,10.4,-,N/A,,Clear,130,2014-03-31 08:53:00
4:12 AM,42.8,37.4,81,29.60,10.0,SE,10.4,-,N/A,,Clear,130,2014-03-31 09:12:00
4:32 AM,42.8,35.6,76,29.58,10.0,ESE,10.4,-,N/A,,Clear,110,2014-03-31 09:32:00
4:53 AM,42.8,35.6,76,29.57,10.0,ESE,11.5,-,N/A,,Clear,120,2014-03-31 09:53:00
5:12 AM,42.8,35.6,76,29.57,10.0,ESE,9.2,-,N/A,,Clear,120,2014-03-31 10:12:00
5:32 AM,42.8,35.6,76,29.55,10.0,ESE,12.7,-,N/A,,Clear,120,2014-03-31 10:32:00
5:53 AM,42.8,35.6,76,29.54,10.0,ESE,9.2,-,N/A,,Clear,120,2014-03-31 10:53:00
6:12 AM,41.0,35.6,81,29.56,10.0,ESE,8.1,-,N/A,,Clear,120,2014-03-31 11:12:00
6:33 AM,42.8,35.6,76,29.55,10.0,ESE,9.2,-,N/A,,Clear,110,2014-03-31 11:33:00
6:53 AM,41.0,35.6,81,29.55,10.0,ESE,6.9,-,N/A,,Clear,110,2014-03-31 11:53:00
7:12 AM,41.0,35.6,81,29.55,10.0,ESE,9.2,-,N/A,,Clear,120,2014-03-31 12:12:00
7:33 AM,41.0,35.6,81,29.54,10.0,ESE,9.2,-,N/A,,Clear,120,2014-03-31 12:33:00
7:53 AM,41.0,35.6,81,29.55,10.0,SE,8.1,-,N/A,,Clear,130,2014-03-31 12:53:00
8:12 AM,42.8,35.6,76,29.53,10.0,ESE,9.2,-,N/A,,Clear,120,2014-03-31 13:12:00
8:33 AM,44.6,37.4,76,29.52,10.0,ESE,9.2,-,N/A,,Clear,120,2014-03-31 13:33:00
8:53 AM,44.6,35.6,71,29.51,10.0,ESE,8.1,-,N/A,,Clear,120,2014-03-31 13:53:00
9:12 AM,44.6,37.4,76,29.51,10.0,ESE,8.1,-,N/A,,Clear,110,2014-03-31 14:12:00
9:33 AM,44.6,37.4,76,29.52,10.0,ESE,8.1,-,N/A,,Mostly Cloudy,110,2014-03-31 14:33:00
9:53 AM,44.6,37.4,76,29.51,10.0,ESE,10.4,-,N/A,,Mostly Cloudy,110,2014-03-31 14:53:00
10:12 AM,46.4,37.4,71,29.50,10.0,ESE,12.7,-,N/A,,Mostly Cloudy,120,2014-03-31 15:12:00
10:33 AM,48.2,39.2,71,29.50,10.0,SE,12.7,18.4,N/A,,Overcast,130,2014-03-31 15:33:00
10:53 AM,48.2,41.0,76,29.50,10.0,SE,12.7,20.7,N/A,,Overcast,140,2014-03-31 15:53:00
11:12 AM,48.2,42.8,82,29.49,10.0,SE,12.7,18.4,N/A,,Overcast,140,2014-03-31 16:12:00
11:33 AM,50.0,42.8,76,29.48,10.0,SE,10.4,17.3,N/A,,Overcast,140,2014-03-31 16:33:00
11:52 AM,50.0,42.8,76,29.47,10.0,SE,11.5,-,N/A,,Mostly Cloudy,130,2014-03-31 16:52:00
12:12 PM,50.0,42.8,76,29.46,10.0,ESE,11.5,18.4,N/A,,Overcast,110,2014-03-31 17:12:00
12:33 PM,50.0,42.8,76,29.45,10.0,SE,15.0,18.4,N/A,,Overcast,130,2014-03-31 17:33:00
12:52 PM,50.0,42.8,76,29.44,10.0,SE,13.8,19.6,N/A,,Overcast,130,2014-03-31 17:52:00
1:12 PM,51.8,44.6,76,29.43,10.0,ESE,13.8,19.6,N/A,Thunderstorm,Overcast,120,2014-03-31 18:12:00
1:33 PM,51.8,44.6,76,29.42,10.0,ESE,11.5,17.3,N/A,,Overcast,120,2014-03-31 18:33:00
1:52 PM,53.6,46.4,77,29.42,10.0,SE,15.0,19.6,N/A,,Overcast,140,2014-03-31 18:52:00
2:12 PM,51.8,46.4,82,29.40,10.0,SE,13.8,18.4,N/A,,Overcast,130,2014-03-31 19:12:00
2:33 PM,53.6,46.4,77,29.39,10.0,SE,12.7,18.4,N/A,,Overcast,140,2014-03-31 19:33:00
2:52 PM,53.6,46.4,77,29.37,10.0,ESE,12.7,17.3,N/A,,Mostly Cloudy,120,2014-03-31 19:52:00
3:12 PM,51.8,46.4,82,29.36,10.0,ESE,11.5,-,N/A,,Mostly Cloudy,120,2014-03-31 20:12:00
3:33 PM,51.8,44.6,76,29.34,10.0,ESE,12.7,19.6,N/A,,Mostly Cloudy,110,2014-03-31 20:33:00
3:52 PM,51.8,44.6,76,29.33,10.0,East,12.7,19.6,N/A,,Mostly Cloudy,100,2014-03-31 20:52:00
4:13 PM,51.8,44.6,76,29.31,10.0,East,17.3,-,N/A,,Mostly Cloudy,100,2014-03-31 21:13:00
4:33 PM,51.8,44.6,76,29.30,10.0,East,16.1,25.3,N/A,Thunderstorm,Thunderstorm,100,2014-03-31 21:33:00
4:52 PM,48.2,42.8,82,29.31,10.0,East,19.6,25.3,N/A,,Mostly Cloudy,90,2014-03-31 21:52:00
5:13 PM,46.4,42.8,87,29.30,10.0,East,18.4,26.5,N/A,Thunderstorm,Overcast,100,2014-03-31 22:13:00
5:33 PM,46.4,42.8,87,29.30,7.0,East,11.5,19.6,N/A,,Drizzle,100,2014-03-31 22:33:00
5:52 PM,44.6,41.0,87,29.32,5.0,North,13.8,-,N/A,Rain-Thunderstorm,Light Thunderstorms and Rain,10,2014-03-31 22:52:00
6:13 PM,42.8,39.2,87,29.33,5.0,NNE,15.0,-,N/A,,Overcast,20,2014-03-31 23:13:00
6:33 PM,42.8,39.2,87,29.32,5.0,NE,18.4,-,N/A,,Overcast,40,2014-03-31 23:33:00
6:52 PM,42.8,39.2,87,29.32,5.0,NNE,17.3,23.0,N/A,,Overcast,20,2014-03-31 23:52:00
7:13 PM,39.2,37.4,93,29.33,5.0,NNE,18.4,25.3,N/A,,Overcast,20,2014-04-01 00:13:00
7:33 PM,39.2,37.4,93,29.34,7.0,NNE,19.6,26.5,N/A,,Overcast,20,2014-04-01 00:33:00
7:52 PM,39.2,35.6,87,29.34,7.0,NNE,18.4,25.3,N/A,,Overcast,20,2014-04-01 00:52:00
8:13 PM,37.4,35.6,93,29.36,10.0,NNE,17.3,25.3,N/A,,Overcast,20,2014-04-01 01:13:00
8:32 PM,37.4,35.6,93,29.38,10.0,North,19.6,26.5,N/A,,Overcast,10,2014-04-01 01:32:00
8:53 PM,37.4,35.6,93,29.39,10.0,North,24.2,28.8,N/A,,Overcast,360,2014-04-01 01:53:00
9:13 PM,33.8,30.2,87,29.41,10.0,North,24.2,29.9,N/A,,Overcast,360,2014-04-01 02:13:00
9:32 PM,33.8,30.2,87,29.42,10.0,North,23.0,33.4,N/A,,Overcast,10,2014-04-01 02:32:00
9:53 PM,32.0,30.2,93,29.44,10.0,North,23.0,36.8,N/A,,Overcast,10,2014-04-01 02:53:00
10:13 PM,30.2,28.4,93,29.46,7.0,North,29.9,39.1,N/A,,Overcast,360,2014-04-01 03:13:00
10:32 PM,28.4,26.6,93,29.47,7.0,North,28.8,38.0,N/A,Snow,Light Snow,360,2014-04-01 03:32:00
10:53 PM,24.8,23.0,93,29.49,5.0,North,31.1,39.1,N/A,Snow,Light Snow,360,2014-04-01 03:53:00
11:13 PM,23.0,21.2,93,29.51,7.0,North,32.2,39.1,N/A,Snow,Light Snow,360,2014-04-01 04:13:00
11:32 PM,21.2,19.4,93,29.53,10.0,North,32.2,42.6,N/A,,Overcast,360,2014-04-01 04:32:00
11:53 PM,21.2,17.6,86,29.56,4.0,North,31.1,42.6,N/A,Snow,Light Snow,360,2014-04-01 04:53:00